Starlink 11151

operational
NORAD ID: 60049 Int'l Des: 2024-112 Owner: SPXS Country: US Constellation: starlink
LEOCIRCULAR

关于 Starlink 11151

正在加载描述...

实时位置

正在加载3D地球...

即将过境

高度历史

Altitude vs Time

uPlot chart will show altitude changes over time

两行轨道根数

1 60049U 24112M 25353.84458889 .00000507 00000-0 90513-5 0 9996
2 60049 53.1588 299.6432 0000903 30.5506 329.5564 15.69684213 88440
Epoch: Dec 19, 2025 • Age: 11 hours

当前状态

高度 364.5 km
速度 7.70 km/s
星下点 45.15°N, 132.3°W
发射日期 Jun 8, 2024
运行时间 1.5 years
类型 internet

技术详情

分类 Payload
质量 960.00 kg
干质量 910.00 kg
总质量 960.00 kg
长度 0.30 m
直径 4.10 m
跨度 29.00 m
形状 Box + pan
制造商 SPXS
平台类型 Starlink V2MD
阶段状态 In Orbit
所有者/国家 SPXS/US

大型星座

Loading constellations...